Time,TemperatureF,DewpointF,PressureIn,WindDirection,WindDirectionDegrees,WindSpeedMPH,WindSpeedGustMPH,Humidity,HourlyPrecipIn,Conditions,Clouds,dailyrainin,SoftwareType,DateUTC
2013-01-03 00:06:00,27.1,6.0,0.00,North,357,0.0,10.5,40,0.31,,,0.31,VWS V13.01,2013-01-03 05:06:00,
2013-01-03 00:11:00,27.3,6.7,0.00,North,357,0.0,10.5,41,0.31,,,0.31,VWS V13.01,2013-01-03 05:11:00,
2013-01-03 00:16:00,27.3,6.7,0.00,North,357,0.0,10.5,41,0.31,,,0.31,VWS V13.01,2013-01-03 05:16:00,
2013-01-03 00:21:00,27.3,6.7,0.00,North,357,0.0,10.5,41,0.31,,,0.31,VWS V13.01,2013-01-03 05:21:00,
2013-01-03 00:26:00,27.1,6.6,0.00,North,357,0.0,10.5,41,0.31,,,0.31,VWS V13.01,2013-01-03 05:26:00,
2013-01-03 00:31:00,27.1,6.6,0.00,North,357,0.0,10.5,41,0.31,,,0.31,VWS V13.01,2013-01-03 05:31:00,
2013-01-03 00:36:00,27.0,6.4,0.00,North,357,0.0,10.5,41,0.31,,,0.31,VWS V13.01,2013-01-03 05:36:00,
2013-01-03 00:41:00,27.0,6.4,0.00,North,357,0.0,10.5,41,0.31,,,0.31,VWS V13.01,2013-01-03 05:41:00,
2013-01-03 00:46:00,27.0,6.4,0.00,North,357,0.0,10.5,41,0.31,,,0.31,VWS V13.01,2013-01-03 05:46:00,
2013-01-03 00:51:00,27.0,6.4,0.00,North,357,0.0,10.5,41,0.31,,,0.31,VWS V13.01,2013-01-03 05:51:00,
2013-01-03 00:56:00,27.0,6.4,0.00,North,357,0.0,10.5,41,0.31,,,0.31,VWS V13.01,2013-01-03 05:56:00,
2013-01-03 01:01:00,26.8,6.2,0.00,North,357,0.0,10.5,41,0.31,,,0.31,VWS V13.01,2013-01-03 06:01:00,
2013-01-03 01:06:00,27.0,6.4,0.00,North,357,0.0,10.5,41,0.31,,,0.31,VWS V13.01,2013-01-03 06:06:00,
2013-01-03 01:11:00,27.0,6.4,0.00,North,357,0.0,10.5,41,0.31,,,0.31,VWS V13.01,2013-01-03 06:11:00,
2013-01-03 01:16:00,26.8,6.8,0.00,North,357,0.0,10.5,42,0.31,,,0.31,VWS V13.01,2013-01-03 06:16:00,
2013-01-03 01:21:00,26.8,6.8,0.00,North,357,0.0,10.5,42,0.31,,,0.31,VWS V13.01,2013-01-03 06:21:00,
2013-01-03 01:26:00,27.0,6.9,0.00,North,357,0.0,10.5,42,0.31,,,0.31,VWS V13.01,2013-01-03 06:26:00,
2013-01-03 01:31:00,27.0,6.9,0.00,North,357,0.0,10.5,42,0.31,,,0.31,VWS V13.01,2013-01-03 06:31:00,
2013-01-03 01:36:00,27.0,6.9,0.00,North,357,0.0,10.5,42,0.31,,,0.31,VWS V13.01,2013-01-03 06:36:00,
2013-01-03 01:41:00,26.8,6.8,0.00,North,357,0.0,10.5,42,0.31,,,0.31,VWS V13.01,2013-01-03 06:41:00,
2013-01-03 01:46:00,26.8,7.3,0.00,North,357,0.0,10.5,43,0.31,,,0.31,VWS V13.01,2013-01-03 06:46:00,
2013-01-03 01:51:00,26.8,7.3,0.00,North,357,0.0,10.5,43,0.31,,,0.31,VWS V13.01,2013-01-03 06:51:00,
2013-01-03 01:56:00,26.8,7.3,0.00,North,357,0.0,10.5,43,0.31,,,0.31,VWS V13.01,2013-01-03 06:56:00,
2013-01-03 02:01:00,26.6,7.1,0.00,North,357,0.0,10.5,43,0.31,,,0.31,VWS V13.01,2013-01-03 07:01:00,
2013-01-03 02:06:00,26.6,7.6,0.00,North,357,0.0,10.5,44,0.31,,,0.31,VWS V13.01,2013-01-03 07:06:00,
2013-01-03 02:11:00,26.6,7.6,0.00,North,357,0.0,10.5,44,0.31,,,0.31,VWS V13.01,2013-01-03 07:11:00,
2013-01-03 02:16:00,26.6,7.6,0.00,North,357,0.0,10.5,44,0.31,,,0.31,VWS V13.01,2013-01-03 07:16:00,
2013-01-03 02:21:00,26.6,8.1,0.00,North,357,0.0,10.5,45,0.31,,,0.31,VWS V13.01,2013-01-03 07:21:00,
2013-01-03 02:26:00,26.4,7.5,0.00,North,357,0.0,10.5,44,0.31,,,0.31,VWS V13.01,2013-01-03 07:26:00,
2013-01-03 02:31:00,26.2,7.8,0.00,North,357,0.0,10.5,45,0.31,,,0.31,VWS V13.01,2013-01-03 07:31:00,
2013-01-03 02:36:00,26.1,7.6,0.00,North,357,0.0,10.5,45,0.31,,,0.31,VWS V13.01,2013-01-03 07:36:00,
2013-01-03 02:41:00,26.1,7.6,0.00,North,357,0.0,10.5,45,0.31,,,0.31,VWS V13.01,2013-01-03 07:41:00,
2013-01-03 02:47:00,25.9,7.5,0.00,North,357,0.0,10.5,45,0.31,,,0.31,VWS V13.01,2013-01-03 07:47:00,
2013-01-03 02:52:00,25.5,7.2,0.00,North,357,0.0,10.5,45,0.31,,,0.31,VWS V13.01,2013-01-03 07:52:00,
2013-01-03 02:57:00,25.3,7.0,0.00,North,357,0.0,10.5,45,0.31,,,0.31,VWS V13.01,2013-01-03 07:57:00,
2013-01-03 03:02:00,25.3,7.0,0.00,North,357,0.0,10.5,45,0.31,,,0.31,VWS V13.01,2013-01-03 08:02:00,
2013-01-03 03:07:00,25.3,7.5,0.00,North,357,0.0,10.5,46,0.31,,,0.31,VWS V13.01,2013-01-03 08:07:00,
2013-01-03 03:12:00,25.7,7.8,0.00,North,0,2.7,10.5,46,0.31,,,0.31,VWS V13.01,2013-01-03 08:12:00,
2013-01-03 03:17:00,25.9,8.4,0.00,NNW,341,0.0,10.5,47,0.31,,,0.31,VWS V13.01,2013-01-03 08:17:00,
2013-01-03 03:22:00,25.9,8.4,0.00,NNW,341,2.2,10.5,47,0.31,,,0.31,VWS V13.01,2013-01-03 08:22:00,
2013-01-03 03:27:00,25.7,8.3,0.00,NNW,328,0.0,10.5,47,0.31,,,0.31,VWS V13.01,2013-01-03 08:27:00,
2013-01-03 03:32:00,25.5,8.1,0.00,NNW,328,0.0,10.5,47,0.31,,,0.31,VWS V13.01,2013-01-03 08:32:00,
2013-01-03 03:37:00,25.3,7.9,0.00,NNW,328,0.0,10.5,47,0.31,,,0.31,VWS V13.01,2013-01-03 08:37:00,
2013-01-03 03:42:00,25.2,7.8,0.00,NNW,327,0.0,10.5,47,0.31,,,0.31,VWS V13.01,2013-01-03 08:42:00,
2013-01-03 03:47:00,25.0,7.6,0.00,NNW,328,0.0,10.5,47,0.31,,,0.31,VWS V13.01,2013-01-03 08:47:00,
2013-01-03 03:52:00,24.8,7.9,0.00,NNW,328,0.0,10.5,48,0.31,,,0.31,VWS V13.01,2013-01-03 08:52:00,
2013-01-03 03:57:00,24.8,7.9,0.00,NNW,328,0.0,10.5,48,0.31,,,0.31,VWS V13.01,2013-01-03 08:57:00,
2013-01-03 04:02:00,24.8,7.9,0.00,NNW,328,0.0,10.5,48,0.31,,,0.31,VWS V13.01,2013-01-03 09:02:00,
2013-01-03 04:07:00,24.8,8.4,0.00,NNW,328,0.0,10.5,49,0.31,,,0.31,VWS V13.01,2013-01-03 09:07:00,
2013-01-03 04:12:00,24.6,8.2,0.00,NNW,328,0.0,10.5,49,0.31,,,0.31,VWS V13.01,2013-01-03 09:12:00,
2013-01-03 04:17:00,24.4,8.0,0.00,NNW,328,0.0,10.5,49,0.31,,,0.31,VWS V13.01,2013-01-03 09:17:00,
2013-01-03 04:22:00,24.4,8.0,0.00,NNW,328,0.0,10.5,49,0.31,,,0.31,VWS V13.01,2013-01-03 09:22:00,
2013-01-03 04:27:00,24.4,8.0,0.00,NNW,328,0.0,10.5,49,0.31,,,0.31,VWS V13.01,2013-01-03 09:27:00,
2013-01-03 04:32:00,24.4,8.0,0.00,NNW,328,0.0,10.5,49,0.31,,,0.31,VWS V13.01,2013-01-03 09:32:00,
2013-01-03 04:37:00,24.4,8.5,0.00,NNW,328,2.2,10.5,50,0.31,,,0.31,VWS V13.01,2013-01-03 09:37:00,
2013-01-03 04:42:00,24.4,8.5,0.00,NNW,328,0.0,10.5,50,0.31,,,0.31,VWS V13.01,2013-01-03 09:42:00,
2013-01-03 04:47:00,24.4,8.5,0.00,NNW,327,0.0,10.5,50,0.31,,,0.31,VWS V13.01,2013-01-03 09:47:00,
2013-01-03 04:52:00,24.4,8.5,0.00,NNW,327,2.2,10.5,50,0.31,,,0.31,VWS V13.01,2013-01-03 09:52:00,
2013-01-03 04:57:00,24.4,8.9,0.00,NNW,327,0.0,10.5,51,0.31,,,0.31,VWS V13.01,2013-01-03 09:57:00,
2013-01-03 05:02:00,24.4,8.9,0.00,NNW,327,0.0,10.5,51,0.31,,,0.31,VWS V13.01,2013-01-03 10:02:00,
2013-01-03 05:07:00,24.4,8.9,0.00,NNW,327,0.0,10.5,51,0.31,,,0.31,VWS V13.01,2013-01-03 10:07:00,
2013-01-03 05:12:00,24.4,9.4,0.00,NNW,327,0.0,10.5,52,0.31,,,0.31,VWS V13.01,2013-01-03 10:12:00,
2013-01-03 05:17:00,24.3,9.2,0.00,NNW,327,0.0,10.5,52,0.31,,,0.31,VWS V13.01,2013-01-03 10:17:00,
2013-01-03 05:22:00,24.3,9.2,0.00,NNW,327,0.0,10.5,52,0.31,,,0.31,VWS V13.01,2013-01-03 10:22:00,
2013-01-03 05:27:00,24.1,9.0,0.00,NNW,327,0.0,10.5,52,0.31,,,0.31,VWS V13.01,2013-01-03 10:27:00,
2013-01-03 05:32:00,24.1,9.0,0.00,NNW,327,0.0,10.5,52,0.31,,,0.31,VWS V13.01,2013-01-03 10:32:00,
2013-01-03 05:37:00,24.1,9.0,0.00,NNW,327,0.0,10.5,52,0.31,,,0.31,VWS V13.01,2013-01-03 10:37:00,
2013-01-03 05:42:00,23.9,8.9,0.00,NNW,327,0.0,10.5,52,0.31,,,0.31,VWS V13.01,2013-01-03 10:42:00,
2013-01-03 05:47:00,23.7,8.7,0.00,NNW,327,0.0,10.5,52,0.31,,,0.31,VWS V13.01,2013-01-03 10:47:00,
2013-01-03 05:52:00,23.5,8.5,0.00,NNW,327,0.0,10.5,52,0.31,,,0.31,VWS V13.01,2013-01-03 10:52:00,
2013-01-03 05:57:00,23.5,8.5,0.00,NNW,327,0.0,10.5,52,0.31,,,0.31,VWS V13.01,2013-01-03 10:57:00,
2013-01-03 06:02:00,23.5,8.5,0.00,NNW,327,0.0,10.5,52,0.31,,,0.31,VWS V13.01,2013-01-03 11:02:00,
2013-01-03 06:07:00,23.5,8.5,0.00,NNW,327,0.0,10.5,52,0.31,,,0.31,VWS V13.01,2013-01-03 11:07:00,
2013-01-03 06:12:00,23.5,8.5,0.00,NNW,327,0.0,10.5,52,0.31,,,0.31,VWS V13.01,2013-01-03 11:12:00,
2013-01-03 06:17:00,23.5,8.5,0.00,NNW,327,0.0,10.5,52,0.31,,,0.31,VWS V13.01,2013-01-03 11:17:00,
2013-01-03 06:22:00,23.5,8.5,0.00,NNW,327,0.0,10.5,52,0.31,,,0.31,VWS V13.01,2013-01-03 11:22:00,
2013-01-03 06:27:00,23.4,8.4,0.00,NNW,327,0.0,10.5,52,0.31,,,0.31,VWS V13.01,2013-01-03 11:27:00,
2013-01-03 06:32:00,23.4,8.4,0.00,NNW,327,0.0,10.5,52,0.31,,,0.31,VWS V13.01,2013-01-03 11:32:00,
2013-01-03 06:37:00,23.4,8.8,0.00,NNW,327,0.0,10.5,53,0.31,,,0.31,VWS V13.01,2013-01-03 11:37:00,
2013-01-03 06:42:00,23.5,8.9,0.00,NNW,327,0.0,10.5,53,0.31,,,0.31,VWS V13.01,2013-01-03 11:42:00,
2013-01-03 06:47:00,23.5,8.9,0.00,NNW,327,0.0,10.5,53,0.31,,,0.31,VWS V13.01,2013-01-03 11:47:00,
2013-01-03 06:52:00,23.5,8.9,0.00,NNW,327,0.0,10.5,53,0.31,,,0.31,VWS V13.01,2013-01-03 11:52:00,
2013-01-03 06:57:00,23.5,8.9,0.00,NNW,327,0.0,10.5,53,0.31,,,0.31,VWS V13.01,2013-01-03 11:57:00,
2013-01-03 07:02:00,23.5,8.9,0.00,NNW,327,0.0,10.5,53,0.31,,,0.31,VWS V13.01,2013-01-03 12:02:00,
2013-01-03 07:07:00,23.4,8.8,0.00,NNW,327,0.0,10.5,53,0.31,,,0.31,VWS V13.01,2013-01-03 12:07:00,
2013-01-03 07:12:00,23.2,8.6,0.00,NNW,327,0.0,10.5,53,0.31,,,0.31,VWS V13.01,2013-01-03 12:12:00,
2013-01-03 07:17:00,23.2,8.6,0.00,NNW,327,0.0,10.5,53,0.31,,,0.31,VWS V13.01,2013-01-03 12:17:00,
2013-01-03 07:22:00,23.4,9.2,0.00,NNW,327,0.0,10.5,54,0.31,,,0.31,VWS V13.01,2013-01-03 12:22:00,
2013-01-03 07:27:00,23.5,9.4,0.00,NNW,327,0.0,10.5,54,0.31,,,0.31,VWS V13.01,2013-01-03 12:27:00,
2013-01-03 07:32:00,23.5,9.4,0.00,NNW,327,0.0,10.5,54,0.31,,,0.31,VWS V13.01,2013-01-03 12:32:00,
2013-01-03 07:37:00,23.5,9.4,0.00,NNW,327,0.0,10.5,54,0.31,,,0.31,VWS V13.01,2013-01-03 12:37:00,
2013-01-03 07:42:00,23.4,9.2,0.00,NNW,327,0.0,10.5,54,0.31,,,0.31,VWS V13.01,2013-01-03 12:42:00,
2013-01-03 07:47:00,23.4,9.2,0.00,NNW,327,0.0,10.5,54,0.31,,,0.31,VWS V13.01,2013-01-03 12:47:00,
2013-01-03 07:52:00,23.4,9.2,0.00,NNW,327,0.0,10.5,54,0.31,,,0.31,VWS V13.01,2013-01-03 12:52:00,
2013-01-03 07:57:00,23.4,9.2,0.00,NNW,327,0.0,10.5,54,0.31,,,0.31,VWS V13.01,2013-01-03 12:57:00,
2013-01-03 08:02:00,23.4,9.2,0.00,NNW,327,2.2,10.5,54,0.31,,,0.31,VWS V13.01,2013-01-03 13:02:00,
2013-01-03 08:07:00,23.5,9.4,0.00,NNW,327,2.2,10.5,54,0.31,,,0.31,VWS V13.01,2013-01-03 13:07:00,
2013-01-03 08:12:00,23.5,9.4,0.00,NNW,328,0.0,10.5,54,0.31,,,0.31,VWS V13.01,2013-01-03 13:12:00,
2013-01-03 08:17:00,23.7,9.9,0.00,NNW,328,0.0,10.5,55,0.31,,,0.31,VWS V13.01,2013-01-03 13:17:00,
2013-01-03 08:22:00,23.7,9.9,0.00,NNW,327,0.0,10.5,55,0.31,,,0.31,VWS V13.01,2013-01-03 13:22:00,
2013-01-03 08:27:00,23.7,9.9,0.00,NNW,327,0.0,10.5,55,0.31,,,0.31,VWS V13.01,2013-01-03 13:27:00,
2013-01-03 08:32:00,23.7,9.9,0.00,NNW,327,2.2,10.5,55,0.31,,,0.31,VWS V13.01,2013-01-03 13:32:00,
2013-01-03 08:37:00,23.7,9.9,0.00,NW,325,0.0,10.5,55,0.31,,,0.31,VWS V13.01,2013-01-03 13:37:00,
2013-01-03 08:42:00,23.7,9.9,0.00,WNW,299,0.0,10.5,55,0.31,,,0.31,VWS V13.01,2013-01-03 13:42:00,
2013-01-03 08:47:00,23.7,9.9,0.00,WNW,300,0.0,10.5,55,0.31,,,0.31,VWS V13.01,2013-01-03 13:47:00,
2013-01-03 08:52:00,23.9,10.1,0.00,WNW,299,0.0,10.5,55,0.31,,,0.31,VWS V13.01,2013-01-03 13:52:00,
2013-01-03 08:57:00,23.9,10.1,0.00,WNW,298,0.0,10.5,55,0.31,,,0.31,VWS V13.01,2013-01-03 13:57:00,
2013-01-03 09:02:00,24.1,10.3,0.00,WNW,298,0.0,10.5,55,0.31,,,0.31,VWS V13.01,2013-01-03 14:02:00,
2013-01-03 09:07:00,24.1,10.3,0.00,WNW,298,0.0,10.5,55,0.31,,,0.31,VWS V13.01,2013-01-03 14:07:00,
2013-01-03 09:12:00,24.1,10.3,0.00,WNW,298,0.0,10.5,55,0.31,,,0.31,VWS V13.01,2013-01-03 14:12:00,
2013-01-03 09:17:00,24.1,10.3,0.00,WNW,298,0.0,10.5,55,0.31,,,0.31,VWS V13.01,2013-01-03 14:17:00,
2013-01-03 09:22:00,24.1,10.3,0.00,WNW,298,0.0,10.5,55,0.31,,,0.31,VWS V13.01,2013-01-03 14:22:00,
2013-01-03 09:27:00,24.3,10.4,0.00,SSE,161,0.0,10.5,55,0.31,,,0.31,VWS V13.01,2013-01-03 14:27:00,
2013-01-03 09:32:00,24.4,10.6,0.00,SSE,162,0.0,10.5,55,0.31,,,0.31,VWS V13.01,2013-01-03 14:32:00,
2013-01-03 09:37:00,24.4,10.6,0.00,South,183,0.0,10.5,55,0.31,,,0.31,VWS V13.01,2013-01-03 14:37:00,
2013-01-03 09:42:00,24.8,10.9,0.00,South,184,2.7,10.5,55,0.31,,,0.31,VWS V13.01,2013-01-03 14:42:00,
2013-01-03 09:48:00,25.2,11.3,0.00,West,271,0.0,10.5,55,0.31,,,0.31,VWS V13.01,2013-01-03 14:48:00,
2013-01-03 09:53:00,25.3,11.4,0.00,West,270,2.2,10.5,55,0.31,,,0.31,VWS V13.01,2013-01-03 14:53:00,
2013-01-03 09:58:00,25.7,11.8,0.00,West,270,2.7,10.5,55,0.31,,,0.31,VWS V13.01,2013-01-03 14:58:00,
2013-01-03 10:03:00,26.1,12.5,0.00,WSW,256,2.2,10.5,56,0.31,,,0.31,VWS V13.01,2013-01-03 15:03:00,
2013-01-03 10:07:00,26.4,12.9,0.00,WSW,253,2.7,10.5,56,0.31,,,0.31,VWS V13.01,2013-01-03 15:07:00,
2013-01-03 10:14:00,26.8,13.2,0.00,WSW,244,0.0,10.5,56,0.31,,,0.31,VWS V13.01,2013-01-03 15:14:00,
2013-01-03 10:19:00,27.1,13.9,0.00,NW,305,0.0,10.5,57,0.31,,,0.31,VWS V13.01,2013-01-03 15:19:00,
2013-01-03 10:24:00,27.9,14.6,0.00,WNW,302,3.1,10.5,57,0.31,,,0.31,VWS V13.01,2013-01-03 15:24:00,
2013-01-03 10:29:00,28.2,15.0,0.00,NW,306,3.1,10.5,57,0.31,,,0.31,VWS V13.01,2013-01-03 15:29:00,
2013-01-03 10:34:00,28.8,15.5,0.00,WNW,295,3.1,10.5,57,0.31,,,0.31,VWS V13.01,2013-01-03 15:34:00,
2013-01-03 10:39:00,28.9,15.2,0.00,SW,230,2.7,10.5,56,0.31,,,0.31,VWS V13.01,2013-01-03 15:39:00,
2013-01-03 10:44:00,29.3,15.1,0.00,WNW,287,2.2,10.5,55,0.31,,,0.31,VWS V13.01,2013-01-03 15:44:00,
2013-01-03 10:51:00,29.8,14.8,0.00,WNW,283,3.1,10.5,53,0.31,,,0.31,VWS V13.01,2013-01-03 15:51:00,
2013-01-03 10:56:00,30.0,13.6,0.00,WSW,245,2.2,10.5,50,0.31,,,0.31,VWS V13.01,2013-01-03 15:56:00,
2013-01-03 11:01:00,30.6,12.7,0.00,NW,326,3.6,10.5,47,0.31,,,0.31,VWS V13.01,2013-01-03 16:01:00,
2013-01-03 11:06:00,30.9,12.6,0.00,WSW,247,2.2,10.5,46,0.31,,,0.31,VWS V13.01,2013-01-03 16:06:00,
2013-01-03 11:11:00,31.6,11.7,0.00,West,276,3.1,10.5,43,0.31,,,0.31,VWS V13.01,2013-01-03 16:11:00,
2013-01-03 11:16:00,31.6,10.6,0.00,WNW,292,2.2,10.5,41,0.31,,,0.31,VWS V13.01,2013-01-03 16:16:00,
2013-01-03 11:21:00,32.4,10.8,0.00,West,265,4.0,10.5,40,0.31,,,0.31,VWS V13.01,2013-01-03 16:21:00,
2013-01-03 11:26:00,32.7,7.5,0.00,WNW,294,0.0,10.5,34,0.31,,,0.31,VWS V13.01,2013-01-03 16:26:00,
2013-01-03 11:31:00,33.1,7.1,0.00,North,0,2.7,10.5,33,0.31,,,0.31,VWS V13.01,2013-01-03 16:31:00,
2013-01-03 11:36:00,33.4,6.8,0.00,WSW,248,2.7,10.5,32,0.31,,,0.31,VWS V13.01,2013-01-03 16:36:00,
2013-01-03 11:41:00,33.8,5.7,0.00,West,260,3.1,10.5,30,0.31,,,0.31,VWS V13.01,2013-01-03 16:41:00,
2013-01-03 11:46:00,34.0,5.8,0.00,SSW,205,6.3,10.5,30,0.31,,,0.31,VWS V13.01,2013-01-03 16:46:00,
2013-01-03 11:51:00,34.2,3.7,0.00,SW,231,3.6,10.5,27,0.31,,,0.31,VWS V13.01,2013-01-03 16:51:00,
2013-01-03 11:56:00,34.5,2.3,0.00,NE,51,2.2,10.5,25,0.31,,,0.31,VWS V13.01,2013-01-03 16:56:00,
2013-01-03 12:01:00,34.9,-0.1,0.00,SW,222,2.7,10.5,22,0.31,,,0.31,VWS V13.01,2013-01-03 17:01:00,
2013-01-03 12:06:00,35.1,0.1,0.00,WNW,293,3.1,10.5,22,0.31,,,0.31,VWS V13.01,2013-01-03 17:06:00,
2013-01-03 12:11:00,35.2,0.2,0.00,WSW,248,2.2,10.5,22,0.31,,,0.31,VWS V13.01,2013-01-03 17:11:00,
2013-01-03 12:16:00,35.8,0.7,0.00,West,273,4.0,10.5,22,0.31,,,0.31,VWS V13.01,2013-01-03 17:16:00,
2013-01-03 12:21:00,35.8,0.7,0.00,NNW,348,0.0,10.5,22,0.31,,,0.31,VWS V13.01,2013-01-03 17:21:00,
2013-01-03 12:26:00,36.5,1.3,0.00,WSW,240,3.6,10.5,22,0.31,,,0.31,VWS V13.01,2013-01-03 17:26:00,
2013-01-03 12:31:00,36.5,-1.8,0.00,West,278,5.8,10.5,19,0.31,,,0.31,VWS V13.01,2013-01-03 17:31:00,
2013-01-03 12:36:00,36.5,-1.8,0.00,West,261,3.1,10.5,19,0.31,,,0.31,VWS V13.01,2013-01-03 17:36:00,
2013-01-03 12:41:00,36.9,-1.5,0.00,NNW,335,3.6,10.5,19,0.31,,,0.31,VWS V13.01,2013-01-03 17:41:00,
2013-01-03 12:46:00,37.4,-1.1,0.00,NW,310,4.0,10.5,19,0.31,,,0.31,VWS V13.01,2013-01-03 17:46:00,
2013-01-03 12:51:00,37.6,-0.9,0.00,WNW,297,0.0,10.5,19,0.31,,,0.31,VWS V13.01,2013-01-03 17:51:00,
2013-01-03 12:56:00,37.9,-0.6,0.00,SW,216,5.8,10.5,19,0.31,,,0.31,VWS V13.01,2013-01-03 17:56:00,
2013-01-03 13:01:00,38.3,-0.3,0.00,WNW,284,4.0,10.5,19,0.31,,,0.31,VWS V13.01,2013-01-03 18:01:00,
2013-01-03 13:06:00,38.1,-0.5,0.00,NNW,338,4.0,10.5,19,0.31,,,0.31,VWS V13.01,2013-01-03 18:06:00,
2013-01-03 13:11:00,38.3,-0.3,0.00,West,278,5.8,10.5,19,0.31,,,0.31,VWS V13.01,2013-01-03 18:11:00,
2013-01-03 13:16:00,38.7,0.0,0.00,WNW,294,8.1,10.5,19,0.31,,,0.31,VWS V13.01,2013-01-03 18:16:00,
2013-01-03 13:21:00,38.3,-0.3,0.00,NNW,338,5.8,10.5,19,0.31,,,0.31,VWS V13.01,2013-01-03 18:21:00,
2013-01-03 13:26:00,38.7,0.0,0.00,NW,324,4.9,10.5,19,0.31,,,0.31,VWS V13.01,2013-01-03 18:26:00,
2013-01-03 13:31:00,39.2,-0.7,0.00,WNW,290,7.6,10.5,18,0.31,,,0.31,VWS V13.01,2013-01-03 18:31:00,
2013-01-03 13:36:00,39.0,0.3,0.00,WNW,290,8.1,10.5,19,0.31,,,0.31,VWS V13.01,2013-01-03 18:36:00,
2013-01-03 13:41:00,39.6,-0.4,0.00,West,268,2.7,10.5,18,0.31,,,0.31,VWS V13.01,2013-01-03 18:41:00,
2013-01-03 13:46:00,39.7,-2.8,0.00,NW,318,5.4,10.5,16,0.31,,,0.31,VWS V13.01,2013-01-03 18:46:00,
2013-01-03 13:51:00,39.6,-2.9,0.00,West,276,3.1,10.5,16,0.31,,,0.31,VWS V13.01,2013-01-03 18:51:00,
2013-01-03 13:56:00,39.9,-2.6,0.00,NW,325,8.3,10.5,16,0.31,,,0.31,VWS V13.01,2013-01-03 18:56:00,
2013-01-03 14:01:00,39.9,-2.6,0.00,NW,312,3.6,10.5,16,0.31,,,0.31,VWS V13.01,2013-01-03 19:01:00,
2013-01-03 14:06:00,40.3,-2.3,0.00,WSW,254,3.1,10.5,16,0.31,,,0.31,VWS V13.01,2013-01-03 19:06:00,
2013-01-03 14:11:00,40.5,-2.2,0.00,NNW,327,5.4,10.5,16,0.31,,,0.31,VWS V13.01,2013-01-03 19:11:00,
2013-01-03 14:16:00,40.5,-2.2,0.00,West,261,4.0,10.5,16,0.31,,,0.31,VWS V13.01,2013-01-03 19:16:00,
2013-01-03 15:24:00,41.7,-1.2,0.00,WNW,287,6.3,11.0,16,0.31,,,0.31,VWS V13.01,2013-01-03 20:24:00,
2013-01-03 15:29:00,41.7,-1.2,0.00,SW,233,10.1,11.0,16,0.31,,,0.31,VWS V13.01,2013-01-03 20:29:00,
2013-01-03 15:34:00,41.7,-1.2,0.00,NW,306,5.8,11.0,16,0.31,,,0.31,VWS V13.01,2013-01-03 20:34:00,
2013-01-03 15:39:00,41.5,-1.3,0.00,West,260,3.6,11.0,16,0.31,,,0.31,VWS V13.01,2013-01-03 20:39:00,
2013-01-03 15:44:00,41.5,-1.3,0.00,West,259,8.1,11.0,16,0.31,,,0.31,VWS V13.01,2013-01-03 20:44:00,
2013-01-03 15:49:00,41.9,-1.0,0.00,WSW,237,5.8,11.0,16,0.31,,,0.31,VWS V13.01,2013-01-03 20:49:00,
2013-01-03 15:54:00,41.7,-1.2,0.00,WSW,238,7.6,11.0,16,0.31,,,0.31,VWS V13.01,2013-01-03 20:54:00,
2013-01-03 15:59:00,41.5,-1.3,0.00,West,277,5.4,11.0,16,0.31,,,0.31,VWS V13.01,2013-01-03 20:59:00,
2013-01-03 16:06:00,41.7,-1.2,0.00,West,278,5.8,11.0,16,0.31,,,0.31,VWS V13.01,2013-01-03 21:06:00,
2013-01-03 16:11:00,41.7,-1.2,0.00,West,274,3.6,11.0,16,0.31,,,0.31,VWS V13.01,2013-01-03 21:11:00,
2013-01-03 16:16:00,42.1,-0.9,0.00,WSW,245,7.6,11.0,16,0.31,,,0.31,VWS V13.01,2013-01-03 21:16:00,
2013-01-03 16:21:00,42.1,-0.9,0.00,WNW,286,5.8,11.0,16,0.31,,,0.31,VWS V13.01,2013-01-03 21:21:00,
2013-01-03 16:26:00,41.9,-1.0,0.00,WNW,303,8.7,11.0,16,0.31,,,0.31,VWS V13.01,2013-01-03 21:26:00,
2013-01-03 16:31:00,41.9,-1.0,0.00,WNW,299,10.5,11.0,16,0.31,,,0.31,VWS V13.01,2013-01-03 21:31:00,
2013-01-03 16:36:00,41.7,-1.2,0.00,WNW,302,8.7,13.2,16,0.31,,,0.31,VWS V13.01,2013-01-03 21:36:00,
2013-01-03 16:41:00,41.5,-1.3,0.00,NW,307,8.1,14.5,16,0.31,,,0.31,VWS V13.01,2013-01-03 21:41:00,
2013-01-03 16:46:00,41.5,-1.3,0.00,NW,309,8.1,14.5,16,0.31,,,0.31,VWS V13.01,2013-01-03 21:46:00,
2013-01-03 16:51:00,41.5,-1.3,0.00,WNW,284,3.1,14.5,16,0.31,,,0.31,VWS V13.01,2013-01-03 21:51:00,
2013-01-03 16:56:00,41.5,-1.3,0.00,WNW,291,4.0,14.5,16,0.31,,,0.31,VWS V13.01,2013-01-03 21:56:00,
2013-01-03 17:01:00,41.2,-1.6,0.00,West,270,4.9,14.5,16,0.31,,,0.31,VWS V13.01,2013-01-03 22:01:00,
2013-01-03 17:06:00,41.0,-1.7,0.00,West,268,5.8,14.5,16,0.31,,,0.31,VWS V13.01,2013-01-03 22:06:00,
2013-01-03 17:11:00,40.8,-1.9,0.00,WNW,291,5.8,14.5,16,0.31,,,0.31,VWS V13.01,2013-01-03 22:11:00,
2013-01-03 17:16:00,40.6,-2.0,0.00,West,279,5.8,14.5,16,0.31,,,0.31,VWS V13.01,2013-01-03 22:16:00,
2013-01-03 17:26:00,39.9,-2.6,0.00,NW,304,7.6,14.5,16,0.31,,,0.31,VWS V13.01,2013-01-03 22:26:00,
2013-01-03 17:31:00,39.6,-2.9,0.00,WNW,297,2.7,14.5,16,0.31,,,0.31,VWS V13.01,2013-01-03 22:31:00,
2013-01-03 17:36:00,39.2,-3.2,0.00,WNW,298,6.7,14.5,16,0.31,,,0.31,VWS V13.01,2013-01-03 22:36:00,
2013-01-03 17:41:00,38.8,-3.5,0.00,West,277,6.3,14.5,16,0.31,,,0.31,VWS V13.01,2013-01-03 22:41:00,
2013-01-03 17:46:00,38.7,-3.7,0.00,NW,307,4.0,14.5,16,0.31,,,0.31,VWS V13.01,2013-01-03 22:46:00,
2013-01-03 17:51:00,38.5,-3.8,0.00,NNW,332,6.3,14.5,16,0.31,,,0.31,VWS V13.01,2013-01-03 22:51:00,
2013-01-03 17:56:00,38.1,-4.1,0.00,NW,312,4.0,14.5,16,0.31,,,0.31,VWS V13.01,2013-01-03 22:56:00,
2013-01-03 18:01:00,37.9,-4.2,0.00,NNW,328,4.0,14.5,16,0.31,,,0.31,VWS V13.01,2013-01-03 23:01:00,
2013-01-03 18:06:00,37.6,-4.5,0.00,NW,322,5.8,14.5,16,0.31,,,0.31,VWS V13.01,2013-01-03 23:06:00,
2013-01-03 18:11:00,37.4,-4.7,0.00,NNW,339,3.6,14.5,16,0.31,,,0.31,VWS V13.01,2013-01-03 23:11:00,
2013-01-03 18:16:00,37.0,-3.7,0.00,NW,322,3.6,14.5,17,0.31,,,0.31,VWS V13.01,2013-01-03 23:16:00,
2013-01-03 18:21:00,37.0,-3.7,0.00,NNW,335,3.6,14.5,17,0.31,,,0.31,VWS V13.01,2013-01-03 23:21:00,
2013-01-03 18:26:00,36.9,-3.9,0.00,NW,326,4.0,14.5,17,0.31,,,0.31,VWS V13.01,2013-01-03 23:26:00,
2013-01-03 18:32:00,36.7,-4.0,0.00,NNW,332,3.6,14.5,17,0.31,,,0.31,VWS V13.01,2013-01-03 23:32:00,
2013-01-03 18:37:00,36.5,-4.2,0.00,NNW,328,3.6,14.5,17,0.31,,,0.31,VWS V13.01,2013-01-03 23:37:00,
2013-01-03 18:42:00,36.5,-4.2,0.00,NNW,334,3.1,14.5,17,0.31,,,0.31,VWS V13.01,2013-01-03 23:42:00,
2013-01-03 18:47:00,36.3,-4.3,0.00,NW,326,3.6,14.5,17,0.31,,,0.31,VWS V13.01,2013-01-03 23:47:00,
2013-01-03 18:52:00,36.1,-4.5,0.00,NNW,329,5.4,14.5,17,0.31,,,0.31,VWS V13.01,2013-01-03 23:52:00,
2013-01-03 18:57:00,36.1,-4.5,0.00,NW,316,2.2,14.5,17,0.31,,,0.31,VWS V13.01,2013-01-03 23:57:00,
2013-01-03 19:02:00,36.0,-4.6,0.00,NW,305,2.7,14.5,17,0.31,,,0.31,VWS V13.01,2013-01-04 00:02:00,
2013-01-03 19:07:00,35.6,-4.9,0.00,NW,305,3.1,14.5,17,0.31,,,0.31,VWS V13.01,2013-01-04 00:07:00,
2013-01-03 19:12:00,35.2,-5.2,0.00,NW,305,2.7,14.5,17,0.31,,,0.31,VWS V13.01,2013-01-04 00:12:00,
2013-01-03 19:17:00,35.1,-5.3,0.00,NW,305,3.1,14.5,17,0.31,,,0.31,VWS V13.01,2013-01-04 00:17:00,
2013-01-03 19:22:00,34.7,-5.6,0.00,NW,305,2.7,14.5,17,0.31,,,0.31,VWS V13.01,2013-01-04 00:22:00,
2013-01-03 19:27:00,34.3,-5.9,0.00,NW,305,0.0,14.5,17,0.31,,,0.31,VWS V13.01,2013-01-04 00:27:00,
2013-01-03 19:32:00,34.2,-6.1,0.00,NW,305,2.7,14.5,17,0.31,,,0.31,VWS V13.01,2013-01-04 00:32:00,
2013-01-03 19:37:00,33.8,-6.4,0.00,NW,307,2.7,14.5,17,0.31,,,0.31,VWS V13.01,2013-01-04 00:37:00,
2013-01-03 19:42:00,33.6,-5.3,0.00,NW,304,2.7,14.5,18,0.31,,,0.31,VWS V13.01,2013-01-04 00:42:00,
2013-01-03 19:47:00,33.3,-5.7,0.00,WNW,302,2.2,14.5,18,0.31,,,0.31,VWS V13.01,2013-01-04 00:47:00,
2013-01-03 19:52:00,32.7,-6.1,0.00,WNW,302,0.0,14.5,18,0.31,,,0.31,VWS V13.01,2013-01-04 00:52:00,
2013-01-03 19:57:00,32.2,-6.6,0.00,WNW,302,0.0,14.5,18,0.31,,,0.31,VWS V13.01,2013-01-04 00:57:00,
2013-01-03 20:02:00,31.8,-6.8,0.00,WNW,302,0.0,14.5,18,0.31,,,0.31,VWS V13.01,2013-01-04 01:02:00,
2013-01-03 20:07:00,31.3,-5.1,0.00,WNW,302,0.0,14.5,20,0.31,,,0.31,VWS V13.01,2013-01-04 01:07:00,
2013-01-03 20:12:00,31.1,-5.3,0.00,WNW,302,0.0,14.5,20,0.31,,,0.31,VWS V13.01,2013-01-04 01:12:00,
2013-01-03 20:17:00,30.7,-5.6,0.00,WNW,302,0.0,14.5,20,0.31,,,0.31,VWS V13.01,2013-01-04 01:17:00,
2013-01-03 20:22:00,30.7,-5.6,0.00,WNW,302,0.0,14.5,20,0.31,,,0.31,VWS V13.01,2013-01-04 01:22:00,
2013-01-03 20:27:00,30.9,-2.5,0.00,WNW,302,0.0,14.5,23,0.31,,,0.31,VWS V13.01,2013-01-04 01:27:00,
2013-01-03 20:32:00,31.1,-2.4,0.00,NNW,343,2.2,14.5,23,0.31,,,0.31,VWS V13.01,2013-01-04 01:32:00,
2013-01-03 20:37:00,31.5,-5.0,0.00,NNW,341,2.7,14.5,20,0.31,,,0.31,VWS V13.01,2013-01-04 01:37:00,
2013-01-03 20:42:00,31.6,-4.8,0.00,North,0,0.0,14.5,20,0.31,,,0.31,VWS V13.01,2013-01-04 01:42:00,
2013-01-03 20:47:00,31.6,-4.8,0.00,North,0,0.0,14.5,20,0.31,,,0.31,VWS V13.01,2013-01-04 01:47:00,
2013-01-03 20:52:00,31.5,-5.0,0.00,North,0,0.0,14.5,20,0.31,,,0.31,VWS V13.01,2013-01-04 01:52:00,
2013-01-03 20:57:00,31.3,-5.1,0.00,North,0,0.0,14.5,20,0.31,,,0.31,VWS V13.01,2013-01-04 01:57:00,
2013-01-03 21:02:00,31.1,-5.3,0.00,NNW,345,2.2,14.5,20,0.31,,,0.31,VWS V13.01,2013-01-04 02:02:00,
2013-01-03 21:07:00,31.3,-5.1,0.00,North,353,0.0,14.5,20,0.31,,,0.31,VWS V13.01,2013-01-04 02:07:00,
2013-01-03 21:12:00,31.3,-5.1,0.00,NW,315,2.2,14.5,20,0.31,,,0.31,VWS V13.01,2013-01-04 02:12:00,
2013-01-03 21:17:00,31.1,-5.3,0.00,NW,315,0.0,14.5,20,0.31,,,0.31,VWS V13.01,2013-01-04 02:17:00,
2013-01-03 21:22:00,30.6,-5.7,0.00,NW,315,0.0,14.5,20,0.31,,,0.31,VWS V13.01,2013-01-04 02:22:00,
2013-01-03 21:27:00,30.2,-6.0,0.00,NW,315,0.0,14.5,20,0.31,,,0.31,VWS V13.01,2013-01-04 02:27:00,
2013-01-03 21:32:00,30.0,-3.3,0.00,NW,315,0.0,14.5,23,0.31,,,0.31,VWS V13.01,2013-01-04 02:32:00,
2013-01-03 21:37:00,29.7,-3.6,0.00,NW,315,0.0,14.5,23,0.31,,,0.31,VWS V13.01,2013-01-04 02:37:00,
2013-01-03 21:42:00,29.5,-3.7,0.00,NW,315,0.0,14.5,23,0.31,,,0.31,VWS V13.01,2013-01-04 02:42:00,
2013-01-03 21:47:00,29.5,-3.7,0.00,NW,315,0.0,14.5,23,0.31,,,0.31,VWS V13.01,2013-01-04 02:47:00,
2013-01-03 21:52:00,29.7,-3.6,0.00,NW,315,2.2,14.5,23,0.31,,,0.31,VWS V13.01,2013-01-04 02:52:00,
2013-01-03 21:57:00,30.0,-3.3,0.00,North,353,3.1,14.5,23,0.31,,,0.31,VWS V13.01,2013-01-04 02:57:00,
2013-01-03 22:02:00,30.2,-3.1,0.00,NNW,343,2.7,14.5,23,0.31,,,0.31,VWS V13.01,2013-01-04 03:02:00,
2013-01-03 22:07:00,30.2,-3.1,0.00,North,0,0.0,14.5,23,0.31,,,0.31,VWS V13.01,2013-01-04 03:07:00,
2013-01-03 22:12:00,30.2,-3.1,0.00,North,0,0.0,14.5,23,0.31,,,0.31,VWS V13.01,2013-01-04 03:12:00,
2013-01-03 22:17:00,30.2,-3.1,0.00,North,0,0.0,14.5,23,0.31,,,0.31,VWS V13.01,2013-01-04 03:17:00,
2013-01-03 22:22:00,30.2,-3.1,0.00,North,0,0.0,14.5,23,0.31,,,0.31,VWS V13.01,2013-01-04 03:22:00,
2013-01-03 22:27:00,30.0,-3.3,0.00,North,353,0.0,14.5,23,0.31,,,0.31,VWS V13.01,2013-01-04 03:27:00,
2013-01-03 22:32:00,30.0,-3.3,0.00,North,353,0.0,14.5,23,0.31,,,0.31,VWS V13.01,2013-01-04 03:32:00,
2013-01-03 22:37:00,29.7,-3.6,0.00,North,353,0.0,14.5,23,0.31,,,0.31,VWS V13.01,2013-01-04 03:37:00,
2013-01-03 22:42:00,29.5,-3.7,0.00,North,353,0.0,14.5,23,0.31,,,0.31,VWS V13.01,2013-01-04 03:42:00,
2013-01-03 22:47:00,29.3,-2.2,0.00,North,353,2.7,14.5,25,0.31,,,0.31,VWS V13.01,2013-01-04 03:47:00,
2013-01-03 22:52:00,29.3,-2.2,0.00,North,353,0.0,14.5,25,0.31,,,0.31,VWS V13.01,2013-01-04 03:52:00,
2013-01-03 22:57:00,29.1,-2.3,0.00,North,353,0.0,14.5,25,0.31,,,0.31,VWS V13.01,2013-01-04 03:57:00,
2013-01-03 23:02:00,28.9,-2.5,0.00,North,353,2.2,14.5,25,0.31,,,0.31,VWS V13.01,2013-01-04 04:02:00,
2013-01-03 23:07:00,29.3,0.2,0.00,NNW,343,2.2,14.5,28,0.31,,,0.31,VWS V13.01,2013-01-04 04:07:00,
2013-01-03 23:12:00,29.5,0.4,0.00,NNW,333,2.7,14.5,28,0.31,,,0.31,VWS V13.01,2013-01-04 04:12:00,
2013-01-03 23:17:00,29.7,0.6,0.00,NNW,333,0.0,14.5,28,0.31,,,0.31,VWS V13.01,2013-01-04 04:17:00,
2013-01-03 23:22:00,29.5,-2.0,0.00,NNW,333,0.0,14.5,25,0.31,,,0.31,VWS V13.01,2013-01-04 04:22:00,
2013-01-03 23:27:00,28.4,-2.1,0.00,NNW,333,0.0,14.5,26,0.31,,,0.31,VWS V13.01,2013-01-04 04:27:00,
2013-01-03 23:32:00,27.9,-2.6,0.00,NNW,333,0.0,14.5,26,0.31,,,0.31,VWS V13.01,2013-01-04 04:32:00,
2013-01-03 23:37:00,27.1,-1.6,0.00,NNW,333,0.0,14.5,28,0.31,,,0.31,VWS V13.01,2013-01-04 04:37:00,
2013-01-03 23:42:00,26.8,-1.9,0.00,NNW,333,0.0,14.5,28,0.31,,,0.31,VWS V13.01,2013-01-04 04:42:00,
2013-01-03 23:47:00,26.6,0.7,0.00,NNW,333,0.0,14.5,32,0.31,,,0.31,VWS V13.01,2013-01-04 04:47:00,
2013-01-03 23:52:00,26.8,0.2,0.00,NNW,333,0.0,14.5,31,0.31,,,0.31,VWS V13.01,2013-01-04 04:52:00,
2013-01-03 23:57:00,26.8,0.2,0.00,NNW,333,0.0,14.5,31,0.31,,,0.31,VWS V13.01,2013-01-04 04:57:00,